Regional Weather Roundup
Issued by NWS

Home | Current Version | Previous Version | Graphics & Text | Print | Product List | Glossary On
Versions: 1 2 3 4 5 6 7 8 9 10 11 12 13 14 15 16 17 18 19 20 21 22 23 24 25 26 27 28 29 30 31 32 33 34 35 36 37 38 39 40 41 42 43 44 45 46 47 48 49 50
000
ASUS43 KIND 280159
RWRIN

WEATHER ROUNDUP FOR INDIANA
NATIONAL WEATHER SERVICE INDIANAPOLIS IN
900 PM EST SAT DEC 27 2014

NOTE: "FAIR" INDICATES FEW OR NO CLOUDS BELOW 12,000 FEET WITH NO
SIGNIFICANT WEATHER AND/OR OBSTRUCTIONS TO VISIBILITY.

* - STATION DOES NOT REPORT WEATHER SUCH AS PRECIPITATION OR FOG.

+ - STATION NOT QUALITY CONTROLLED BY THE NATIONAL WEATHER SERVICE.
    USE DATA WITH CAUTION...ESPECIALLY DEWPOINT AND RELATIVE
    HUMIDITY OBSERVATIONS.

INZ001>003-010>013-019-020-280300-
NORTHWEST INDIANA

CITY           SKY/WX    TMP DP  RH WIND       PRES   REMARKS
KNOX *+        CLOUDY    34  27  76 W9G16     30.08F WCI  27
VALPARAISO     NOT AVBL

$$

LMZ046-743>745-280300-
SOUTHERN LAKE MICHIGAN

STATION/POSITION TIME  TEMP WIND        PRES
                       AIR  DIR/SP/G
                 (UTC) (F)  (DEG/KT/KT) (MB)
MICHIGAN CITY    0100   35  240/ 21/ 23   N/A

$$

INZ004-005-014>016-021>024-280300-
NORTH CENTRAL INDIANA

CITY           SKY/WX    TMP DP  RH WIND       PRES   REMARKS
GOSHEN         CLOUDY    36  32  85 W10       30.06R
SOUTH BEND     CLOUDY    36  30  79 W10       30.08R
WARSAW +       LGT RAIN  34  34 100 W8        30.07R WCI  27

$$

INZ006>009-017-018-025>027-280300-
NORTHEAST INDIANA

CITY           SKY/WX    TMP DP  RH WIND       PRES   REMARKS
ANGOLA *+      CLOUDY    36  32  87 W12       30.04R
FORT WAYNE     LGT RAIN  37  34  89 W16       30.08R

$$

INZ028-029-035-036-043>045-051>053-280300-
WEST CENTRAL INDIANA

CITY           SKY/WX    TMP DP  RH WIND       PRES   REMARKS
GREENCASTLE +  LGT RAIN  36  32  87 W5        30.11F
LAFAYETTE      MIX PCPN  32  32 100 W7        30.12R FOG     WCI  26
TERRE HAUTE    LGT RAIN  37  34  89 W10       30.16R

$$

INZ030>032-037>040-046>048-054>057-064-065-280300-
CENTRAL INDIANA

CITY           SKY/WX    TMP DP  RH WIND       PRES   REMARKS
CP ATTERBURY + RAIN      43  41  93 MISG      30.10R
COLUMBUS       LGT RAIN  45  45 100 SW5       30.09R FOG
INDIANAPOLIS   LGT RAIN  37  36  96 NW10      30.09F FOG
-EAGLE CREEK   LGT RAIN  37  37 100 NW8       30.08S FOG
KOKOMO *+      CLOUDY    36  30  80 NW13      30.10R
MT COMFORT *+  CLOUDY    39  39 100 NW13      30.10R
SHELBYVILLE    LGT RAIN  44  41  89 NW13G25   30.08R FOG

$$

INZ033-034-041-042-049-050-058-059-280300-
EAST CENTRAL INDIANA

CITY           SKY/WX    TMP DP  RH WIND       PRES   REMARKS
MUNCIE         LGT RAIN  41  37  86 W13G24    30.08R FOG

$$

INZ060-061-067>069-081>083-085>088-280300-
SOUTHWEST INDIANA

CITY           SKY/WX    TMP DP  RH WIND       PRES   REMARKS
EVANSVILLE     HVY RAIN  45  41  86 NW9G20    30.15R FOG
HUNTINGBURG *+ CLOUDY    46  45  93 W5        30.11S

$$

INZ062-063-066-070>080-084-089>092-280300-
SOUTH CENTRAL AND SOUTHEAST INDIANA

CITY           SKY/WX    TMP DP  RH WIND       PRES   REMARKS
BLOOMINGTON    LGT RAIN  42  40  92 NW5       30.11S FOG

$$




USA.gov is the U.S. government's official web portal to all federal, state and local government web resources and services.